Weather History for Cody, WY

Change the Weather History Date:

Saturday, November 5, 2011

  Actual Average Record
Temperature  
Mean Temperature 30 °F -  
Max Temperature 35 °F 51 °F 73 °F (1954)
Min Temperature 24 °F 26 °F -5 °F (1933)
Degree Days  
Heating Degree Days 36    
Moisture  
Dew Point 18 °F    
Average Humidity 63    
Maximum Humidity 74    
Minimum Humidity 48    
Precipitation  
Precipitation 0.00 in - - ()
Sea Level Pressure  
Sea Level Pressure 29.53 in    
Wind  
Wind Speed 8 mph (NNW)    
Max Wind Speed 14 mph    
Max Gust Speed 20 mph    
Visibility 7 miles    
Events      
Averages and records for this station are not official NWS values.
T = Trace of Precipitation, MM = Missing Value Source: NWS Daily Summary

Daily Weather History Graph

Daily Weather History Graph

Search for Another Location

Airport:

Trip Planner

Search our weather history database for the weather conditions in past years. The results will help you decide how hot, cold, wet, or windy it might be!

Date:

Astronomy

Nov. 05, 2011 Rise Set
Actual Time 7:58 AM MDT 6:00 PM MDT
Civil Twilight 7:28 AM MDT 6:30 PM MDT
Nautical Twilight 6:53 AM MDT 7:05 PM MDT
Astronomical Twilight 6:19 AM MDT 7:39 PM MDT
Moon 3:28 PM MDT (11/5) 3:01 AM MDT (11/5)
Length of Visible Light 11h 02m
Length of Day
10h 01m
Waxing Gibbous, 78% of the Moon is Illuminated
Nov 5
Waxing Gibbous
Nov 10
Full
Nov 18
Last Quarter
Nov 24
New
Dec 2
First Quarter

Hourly Weather History & Observations

Time (MDT) Temp. Windchill Dew Point Humidity Pressure Visibility Wind Dir Wind Speed Gust Speed Precip Events Conditions
12:35 AM 33.8 °F 27.0 °F 17.6 °F 52% 29.51 in 10.0 mi North 8.1 mph - N/A   Clear
12:55 AM 35.6 °F 30.7 °F 17.6 °F 48% 29.51 in 10.0 mi WNW 5.8 mph - N/A   Clear
1:35 AM 33.8 °F 29.6 °F 17.6 °F 52% 29.51 in 10.0 mi WNW 4.6 mph - N/A   Clear
1:55 AM 35.6 °F 30.7 °F 17.6 °F 48% 29.50 in 10.0 mi WNW 5.8 mph - N/A   Clear
2:15 AM 35.6 °F 28.6 °F 17.6 °F 48% 29.50 in 10.0 mi WNW 9.2 mph - N/A   Clear
2:35 AM 33.8 °F - 15.8 °F 48% 29.49 in 10.0 mi Calm Calm - N/A   Clear
2:55 AM 33.8 °F 27.7 °F 15.8 °F 48% 29.49 in 10.0 mi NNE 6.9 mph - N/A   Partly Cloudy
3:15 AM 33.8 °F - 15.8 °F 48% 29.48 in 10.0 mi Calm Calm - N/A   Partly Cloudy
3:35 AM 33.8 °F 25.8 °F 15.8 °F 48% 29.48 in 10.0 mi North 10.4 mph - N/A   Partly Cloudy
3:55 AM 32.0 °F 24.2 °F 17.6 °F 55% 29.47 in 10.0 mi North 9.2 mph - N/A   Mostly Cloudy
4:15 AM 32.0 °F 23.6 °F 17.6 °F 55% 29.46 in 10.0 mi North 10.4 mph - N/A   Mostly Cloudy
4:55 AM 32.0 °F 23.6 °F 15.8 °F 51% 29.46 in 10.0 mi North 10.4 mph - N/A   Mostly Cloudy
5:35 AM 32.0 °F 24.2 °F 15.8 °F 51% 29.44 in 10.0 mi North 9.2 mph - N/A   Mostly Cloudy
5:55 AM 30.2 °F 24.3 °F 15.8 °F 55% 29.44 in 10.0 mi North 5.8 mph - N/A   Partly Cloudy
6:35 AM 30.2 °F 24.3 °F 15.8 °F 55% 29.44 in 10.0 mi NNE 5.8 mph - N/A   Overcast
7:15 AM 32.0 °F 27.5 °F 15.8 °F 51% 29.44 in 10.0 mi North 4.6 mph - N/A   Overcast
7:35 AM 33.8 °F 27.7 °F 15.8 °F 48% 29.44 in 10.0 mi North 6.9 mph - N/A   Overcast
7:55 AM 33.8 °F 27.7 °F 15.8 °F 48% 29.44 in 10.0 mi NNW 6.9 mph - N/A   Overcast
8:15 AM 33.8 °F 29.6 °F 15.8 °F 48% 29.44 in 10.0 mi NW 4.6 mph - N/A   Overcast
8:35 AM 33.8 °F 24.3 °F 15.8 °F 48% 29.44 in 10.0 mi NW 13.8 mph 18.4 mph N/A   Overcast
8:55 AM 33.8 °F 27.7 °F 15.8 °F 48% 29.46 in 10.0 mi West 6.9 mph - N/A   Mostly Cloudy
9:15 AM 33.8 °F 24.8 °F 17.6 °F 52% 29.46 in 8.0 mi NW 12.7 mph 19.6 mph N/A   Overcast
9:35 AM 30.2 °F 20.8 °F 19.4 °F 64% 29.46 in 0.5 mi NW 11.5 mph - N/A   Overcast
9:55 AM 28.4 °F 22.2 °F 19.4 °F 69% 29.47 in 0.2 mi NNW 5.8 mph - N/A   Overcast
10:15 AM 28.4 °F 19.7 °F 21.2 °F 74% 29.48 in 0.2 mi NW 9.2 mph - N/A   Overcast
10:55 AM 28.4 °F 20.4 °F 21.2 °F 74% 29.49 in 0.8 mi WNW 8.1 mph - N/A   Overcast
11:15 AM 28.4 °F 22.2 °F 21.2 °F 74% 29.49 in 0.5 mi NW 5.8 mph - N/A   Overcast
12:15 PM 30.2 °F 24.3 °F 21.2 °F 69% 29.49 in 3.0 mi WSW 5.8 mph - N/A   Overcast
12:35 PM 30.2 °F 24.3 °F 21.2 °F 69% 29.50 in 2.0 mi WNW 5.8 mph - N/A   Overcast
12:55 PM 30.2 °F 23.4 °F 21.2 °F 69% 29.49 in 2.0 mi NW 6.9 mph - N/A   Overcast
1:15 PM 30.2 °F 20.8 °F 21.2 °F 69% 29.49 in 3.0 mi NNW 11.5 mph - N/A   Overcast
1:35 PM 30.2 °F 21.3 °F 19.4 °F 64% 29.49 in 3.0 mi NNW 10.4 mph - N/A   Overcast
1:55 PM 28.4 °F 18.5 °F 19.4 °F 69% 29.49 in 2.5 mi NNW 11.5 mph - N/A   Overcast
2:15 PM 28.4 °F 19.7 °F 19.4 °F 69% 29.50 in 1.8 mi NNW 9.2 mph - N/A   Overcast
2:35 PM 28.4 °F 18.5 °F 19.4 °F 69% 29.51 in 1.2 mi NNW 11.5 mph - N/A   Overcast
2:55 PM 28.4 °F 19.7 °F 19.4 °F 69% 29.52 in 1.2 mi NNW 9.2 mph - N/A   Overcast
3:15 PM 28.4 °F 19.1 °F 21.2 °F 74% 29.52 in 1.0 mi NNW 10.4 mph - N/A   Overcast
3:35 PM 28.4 °F 18.5 °F 19.4 °F 69% 29.52 in 1.0 mi NNW 11.5 mph - N/A   Overcast
3:55 PM 28.4 °F 19.7 °F 19.4 °F 69% 29.53 in 1.8 mi NNW 9.2 mph - N/A   Overcast
4:15 PM 28.4 °F 19.7 °F 19.4 °F 69% 29.54 in 3.0 mi NNW 9.2 mph - N/A   Overcast
4:55 PM 28.4 °F 19.7 °F 19.4 °F 69% 29.55 in 3.0 mi NNW 9.2 mph - N/A   Overcast
5:15 PM 28.4 °F 19.1 °F 19.4 °F 69% 29.56 in 5.0 mi North 10.4 mph - N/A   Overcast
5:55 PM 28.4 °F 19.7 °F 19.4 °F 69% 29.58 in 9.0 mi NNW 9.2 mph - N/A   Mostly Cloudy
6:15 PM 28.4 °F 19.7 °F 19.4 °F 69% 29.59 in 8.0 mi NNW 9.2 mph - N/A   Overcast
6:35 PM 26.6 °F 17.5 °F 19.4 °F 74% 29.60 in 5.0 mi NNW 9.2 mph - N/A   Overcast
6:55 PM 26.6 °F 18.2 °F 19.4 °F 74% 29.61 in 3.0 mi NNW 8.1 mph - N/A   Overcast
7:35 PM 26.6 °F 16.8 °F 17.6 °F 69% 29.62 in 5.0 mi NNW 10.4 mph - N/A   Mostly Cloudy
7:55 PM 26.6 °F 18.2 °F 17.6 °F 69% 29.62 in 9.0 mi NNW 8.1 mph - N/A   Overcast
8:15 PM 26.6 °F 16.8 °F 17.6 °F 69% 29.63 in 10.0 mi NNW 10.4 mph - N/A   Overcast
8:35 PM 26.6 °F 16.8 °F 17.6 °F 69% 29.63 in 10.0 mi North 10.4 mph - N/A   Overcast
8:55 PM 26.6 °F 16.2 °F 17.6 °F 69% 29.64 in 10.0 mi North 11.5 mph - N/A   Overcast
9:15 PM 26.6 °F 20.0 °F 17.6 °F 69% 29.65 in 10.0 mi North 5.8 mph - N/A   Overcast
9:35 PM 26.6 °F 22.6 °F 17.6 °F 69% 29.65 in 10.0 mi NNW 3.5 mph - N/A   Overcast
9:55 PM 26.6 °F 19.1 °F 17.6 °F 69% 29.65 in 10.0 mi NNW 6.9 mph - N/A   Overcast
10:15 PM 26.6 °F 19.1 °F 17.6 °F 69% 29.66 in 10.0 mi North 6.9 mph - N/A   Overcast
10:35 PM 26.6 °F 19.1 °F 17.6 °F 69% 29.66 in 10.0 mi NW 6.9 mph - N/A   Overcast
10:55 PM 24.8 °F 16.9 °F 17.6 °F 74% 29.67 in 10.0 mi WSW 6.9 mph - N/A   Overcast
11:15 PM 24.8 °F 20.5 °F 17.6 °F 74% 29.66 in 10.0 mi West 3.5 mph - N/A   Overcast
11:35 PM 24.8 °F 19.1 °F 15.8 °F 69% 29.66 in 10.0 mi North 4.6 mph - N/A   Overcast
11:55 PM 24.8 °F - 17.6 °F 74% 29.66 in 7.0 mi Calm Calm - N/A   Overcast